sat.trackr.live / text

‹ back to catalog

STARLINK-37335

NORAD 68785 · 2026-086V

PAYLOAD ACTIVE UNKNOWN

§ Identity

Operator
Country
US
Launch date
2026-04-19
Launch site
AFWTR
Launch vehicle
Mass (kg)
RCS (m²)

Purposes: comms

External: N2YO · Heavens-Above · Gunter

§ Orbital elements

Epoch: 2026-09-19T02:11:17.520864Z

Period
93.91 min
Inclination
97.2853°
Eccentricity
0.0001091
Mean motion
15.33455486 rev/d
Perigee alt
464.8 km
Apogee alt
466.3 km
Semi-major
6,843.6 km
B*
4.8243e-4
RAAN
297.6089°
Arg perigee
96.5014°
Mean anomaly
263.6353°
Rev number
2,347

§ Raw data

STARLINK-373351 68785U 26086V   26262.09117501  .00015537  00000+0  48243-3 0  99922 68785  97.2853 297.6089 0001091  96.5014 263.6353 15.33455486 23475

JSON: /api/v1/satellites/68785 · /tle

For live sub-satellite position, see the globe view (requires WebGL).

§ Visibility from observer

Set your observer location to see the next 7 days of passes ≥ 10°. The values pass through the URL so the page stays shareable.

No JS? Fill the form by hand. The geolocation button needs JavaScript.